TimeCDT,TemperatureF,Dew PointF,Humidity,Sea Level PressureIn,VisibilityMPH,Wind Direction,Wind SpeedMPH,Gust SpeedMPH,PrecipitationIn,Events,Conditions,WindDirDegrees,DateUTC
12:54 AM,55.9,46.0,69,30.03,10.0,South,4.6,-,N/A,,Overcast,180,2013-09-15 05:54:00
1:54 AM,55.9,46.0,69,30.03,10.0,SE,3.5,-,N/A,,Overcast,140,2013-09-15 06:54:00
2:54 AM,57.0,46.0,67,30.04,10.0,South,3.5,-,N/A,,Overcast,180,2013-09-15 07:54:00
3:54 AM,57.0,46.9,69,30.05,10.0,Calm,Calm,-,N/A,,Overcast,0,2013-09-15 08:54:00
4:54 AM,57.0,50.0,77,30.05,10.0,Calm,Calm,-,0.01,,Overcast,0,2013-09-15 09:54:00
5:54 AM,55.9,51.1,84,30.07,10.0,ENE,4.6,-,0.04,Rain,Light Rain,60,2013-09-15 10:54:00
6:54 AM,54.0,52.0,93,30.06,4.0,ESE,5.8,-,0.12,Rain,Rain,110,2013-09-15 11:54:00
7:54 AM,54.0,52.0,93,30.06,6.0,East,4.6,-,0.13,Rain,Light Rain,80,2013-09-15 12:54:00
8:54 AM,53.1,52.0,96,30.04,2.0,East,10.4,-,0.21,Rain,Light Rain,100,2013-09-15 13:54:00
9:54 AM,54.0,52.0,93,30.03,4.0,SE,6.9,-,0.23,Rain,Light Rain,130,2013-09-15 14:54:00
10:54 AM,55.0,53.1,93,30.03,3.0,SE,8.1,-,0.03,Rain,Light Rain,140,2013-09-15 15:54:00
11:54 AM,55.9,54.0,93,30.02,3.0,SSE,8.1,-,0.08,Rain,Light Rain,160,2013-09-15 16:54:00
12:35 PM,55.4,53.6,94,30.02,10.0,South,4.6,-,0.01,,Overcast,180,2013-09-15 17:35:00
12:54 PM,57.0,54.0,89,30.03,4.0,South,4.6,-,0.01,Rain,Light Rain,170,2013-09-15 17:54:00
1:16 PM,57.2,55.4,94,30.03,1.5,Calm,Calm,-,0.01,Rain,Light Rain,0,2013-09-15 18:16:00
1:42 PM,57.2,55.4,94,30.00,1.0,SE,5.8,-,0.09,Rain,Heavy Rain,140,2013-09-15 18:42:00
1:54 PM,57.0,55.9,96,30.02,1.5,Calm,Calm,-,0.15,Rain,Rain,0,2013-09-15 18:54:00
2:09 PM,57.2,55.4,94,30.03,2.5,Calm,Calm,-,0.01,Rain,Light Rain,0,2013-09-15 19:09:00
2:54 PM,57.0,55.9,96,30.05,2.5,NNW,4.6,-,0.06,Rain,Light Rain,340,2013-09-15 19:54:00
3:11 PM,57.2,55.4,94,30.05,2.0,NW,3.5,-,0.02,Rain,Rain,320,2013-09-15 20:11:00
3:36 PM,57.2,55.4,94,30.05,3.0,NW,3.5,-,0.03,Rain,Light Rain,320,2013-09-15 20:36:00
3:54 PM,57.9,55.9,93,30.06,5.0,North,5.8,-,0.03,,Light Drizzle,350,2013-09-15 20:54:00
4:54 PM,57.9,55.0,90,30.07,10.0,North,8.1,-,0.00,,Overcast,350,2013-09-15 21:54:00
5:18 PM,59.0,55.4,88,30.08,10.0,North,6.9,-,N/A,,Overcast,360,2013-09-15 22:18:00
5:54 PM,57.9,55.0,90,30.09,10.0,North,8.1,-,N/A,,Overcast,10,2013-09-15 22:54:00
6:54 PM,59.0,55.9,90,30.12,10.0,North,8.1,-,N/A,,Overcast,10,2013-09-15 23:54:00
7:22 PM,59.0,55.4,88,30.13,10.0,North,6.9,-,N/A,,Mostly Cloudy,10,2013-09-16 00:22:00
7:54 PM,59.0,55.9,90,30.15,10.0,North,8.1,-,N/A,,Mostly Cloudy,10,2013-09-16 00:54:00
8:54 PM,59.0,55.0,87,30.17,10.0,North,8.1,-,N/A,,Mostly Cloudy,10,2013-09-16 01:54:00
9:54 PM,55.9,53.1,90,30.19,10.0,North,8.1,-,N/A,,Partly Cloudy,10,2013-09-16 02:54:00
10:54 PM,55.0,53.1,93,30.21,10.0,North,9.2,-,N/A,,Partly Cloudy,10,2013-09-16 03:54:00
11:54 PM,55.9,53.1,90,30.22,10.0,NNE,12.7,-,N/A,,Scattered Clouds,20,2013-09-16 04:54:00